Sugar Grove, IL

5:26 AM CST on December 05, 2016 (GMT -0600)
Aurora Municipal

Weather History for KARR - September, 2012

Change the Weather History Date:

Sunday, September 16, 2012

  Actual Average Record
Temperature  
Mean Temperature 61 °F 63 °F  
Max Temperature 77 °F 75 °F 85 °F (2015)
Min Temperature 44 °F 51 °F 36 °F (2000)
Degree Days  
Heating Degree Days 4 4  
Month to date heating degree days 30 36  
Since 1 July heating degree days 49 60  
Cooling Degree Days 0 2  
Month to date cooling degree days 67 49  
Year to date cooling degree days 1004 633  
Growing Degree Days 10 (Base 50)    
Moisture  
Dew Point 48 °F    
Average Humidity 63    
Maximum Humidity 93    
Minimum Humidity 33    
Precipitation  
Precipitation 0.00 in 0.10 in 0.05 in (2010)
Month to date precipitation 0.91 1.64  
Year to date precipitation 17.40 26.84  
Sea Level Pressure  
Sea Level Pressure 30.07 in    
Wind  
Wind Speed 3 mph (SSW)    
Max Wind Speed 15 mph    
Max Gust Speed 21 mph    
Visibility 10 miles    
Events      
T = Trace of Precipitation, MM = Missing Value Source: NWS Daily Summary

Daily Weather History Graph

Daily Weather History Graph

Search for Another Location

Airport or City:

Trip Planner

Search our weather history database for the weather conditions in past years. The results will help you decide how hot, cold, wet, or windy it might be!

Date:

Astronomy

Sep. 16, 2012 Rise Set
Actual Time 6:35 AM CDT 7:00 PM CDT
Civil Twilight 6:07 AM CDT 7:28 PM CDT
Nautical Twilight 5:34 AM CDT 8:01 PM CDT
Astronomical Twilight 5:01 AM CDT 8:34 PM CDT
Moon 7:16 AM CDT (9/16) 7:03 PM CDT (9/16)
Length of Visible Light 13h 20m
Length of Day
12h 25m
New Moon, 0% of the Moon is Illuminated
Sep 16
New Moon
Sep 22
First Quarter
Sep 29
Full
Oct 8
Last Quarter
Oct 15
New

Hourly Weather History & Observations

Time (CDT) Temp. Dew Point Humidity Pressure Visibility Wind Dir Wind Speed Gust Speed Precip Events Conditions
12:52 AM 52.0 °F 46.9 °F 83% 30.14 in 10.0 mi Calm Calm - N/A   Clear
1:52 AM 50.0 °F 46.0 °F 86% 30.13 in 10.0 mi Calm Calm - N/A   Clear
2:52 AM 50.0 °F 46.0 °F 86% 30.13 in 10.0 mi Calm Calm - N/A   Clear
3:52 AM 46.0 °F 44.1 °F 93% 30.13 in 10.0 mi Calm Calm - N/A   Clear
4:52 AM 46.9 °F 44.1 °F 90% 30.12 in 10.0 mi Calm Calm - N/A   Clear
5:52 AM 44.1 °F 43.0 °F 96% 30.13 in 9.0 mi Calm Calm - N/A   Clear
7:52 AM 51.1 °F 48.0 °F 89% 30.14 in 8.0 mi Calm Calm - N/A   Clear
8:52 AM 57.9 °F 51.1 °F 78% 30.14 in 10.0 mi SSW 3.5 mph - N/A   Clear
9:52 AM 63.0 °F 53.1 °F 70% 30.14 in 10.0 mi South 5.8 mph - N/A   Clear
10:52 AM 69.1 °F 51.1 °F 53% 30.12 in 10.0 mi South 4.6 mph - N/A   Clear
11:52 AM 71.1 °F 50.0 °F 47% 30.10 in 10.0 mi Calm Calm - N/A   Clear
12:52 PM 75.0 °F 46.9 °F 37% 30.08 in 10.0 mi SSW 8.1 mph - N/A   Clear
1:52 PM 75.9 °F 46.9 °F 36% 30.05 in 10.0 mi South 13.8 mph - N/A   Clear
3:52 PM 75.9 °F 45.0 °F 33% 30.01 in 10.0 mi SW 10.4 mph - N/A   Clear
4:52 PM 75.0 °F 44.1 °F 33% 29.99 in 10.0 mi SW 5.8 mph - N/A   Clear
5:52 PM 72.0 °F 46.0 °F 40% 29.99 in 10.0 mi SW 6.9 mph - N/A   Clear
6:52 PM 66.0 °F 48.9 °F 54% 29.99 in 10.0 mi Calm Calm - N/A   Clear
7:52 PM 60.1 °F 48.9 °F 67% 29.99 in 10.0 mi Calm Calm - N/A   Clear
8:52 PM 55.0 °F 48.9 °F 80% 30.00 in 10.0 mi Calm Calm - N/A   Clear
9:52 PM 54.0 °F 48.9 °F 83% 30.00 in 10.0 mi Calm Calm - N/A   Clear
10:52 PM 54.0 °F 48.9 °F 83% 29.99 in 10.0 mi Calm Calm - N/A   Clear
11:52 PM 53.1 °F 48.9 °F 86% 29.99 in 10.0 mi Calm Calm - N/A   Clear